ISS3933 LIEO-EDDF

Flight info

Callsign ISS3933
Flight time 1h 30m
Altitude 32000
Route OKIVA P980 DIKEL DCT RATAP DCT MEGER DCT ERTEV DCT ABESI DCT LADOL T163 EMPAX EMPAX5B
Aircraft MD82/M-SDFGIJ1RWY/S

Departure

Time 2026-05-05 18:13
Airport Olbia Costa Smeralda Airport (LIEO)

Arrival

Time 2026-05-05 19:44
Airport Frankfurt Main Airport (EDDF)
Time Latitude Longitude Altitude Speed Heading
2026-05-05 17:40 40.90104 9.51640 36 ft 0 kts 93°
2026-05-05 18:05 40.90107 9.51615 36 ft 4 kts 124°
2026-05-05 18:05 40.90120 9.51604 36 ft 4 kts 187°
2026-05-05 18:05 40.90142 9.51616 36 ft 4 kts 217°
2026-05-05 18:05 40.90157 9.51635 36 ft 0 kts 235°
2026-05-05 18:06 40.90157 9.51636 36 ft 3 kts 235°
2026-05-05 18:07 40.90157 9.51635 36 ft 0 kts 235°
2026-05-05 18:08 40.90142 9.51607 36 ft 6 kts 234°
2026-05-05 18:08 40.90115 9.51560 36 ft 7 kts 233°
2026-05-05 18:08 40.90088 9.51512 36 ft 6 kts 231°
2026-05-05 18:08 40.90069 9.51497 36 ft 0 kts 188°
2026-05-05 18:09 40.90025 9.51509 36 ft 10 kts 162°
2026-05-05 18:09 40.89966 9.51518 33 ft 6 kts 189°
2026-05-05 18:09 40.89929 9.51495 31 ft 4 kts 220°
2026-05-05 18:09 40.89899 9.51441 33 ft 11 kts 234°
2026-05-05 18:10 40.89855 9.51358 34 ft 11 kts 235°
2026-05-05 18:10 40.89815 9.51278 34 ft 11 kts 237°
2026-05-05 18:10 40.89774 9.51198 35 ft 10 kts 236°
2026-05-05 18:10 40.89731 9.51118 36 ft 15 kts 234°
2026-05-05 18:11 40.89668 9.50993 36 ft 17 kts 236°
2026-05-05 18:11 40.89604 9.50870 37 ft 16 kts 234°
2026-05-05 18:11 40.89542 9.50755 37 ft 17 kts 234°
2026-05-05 18:11 40.89457 9.50595 35 ft 23 kts 236°
2026-05-05 18:12 40.89385 9.50470 37 ft 14 kts 221°
2026-05-05 18:12 40.89298 9.50464 36 ft 13 kts 131°
2026-05-05 18:12 40.89273 9.50600 32 ft 23 kts 77°
2026-05-05 18:12 40.89456 9.50973 30 ft 77 kts 54°
2026-05-05 18:13 40.89884 9.51797 23 ft 137 kts 55°
2026-05-05 18:13 40.90525 9.52943 180 ft 167 kts 53°
2026-05-05 18:13 40.91209 9.54165 827 ft 165 kts 54°
2026-05-05 18:13 40.91873 9.55424 1392 ft 170 kts 56°
2026-05-05 18:14 40.92574 9.56701 1866 ft 173 kts 54°
2026-05-05 18:14 40.93200 9.57807 2232 ft 175 kts 54°
2026-05-05 18:14 40.93932 9.59172 2423 ft 190 kts 57°
2026-05-05 18:14 40.94672 9.60615 2842 ft 190 kts 57°
2026-05-05 18:15 40.95428 9.62093 3189 ft 200 kts 57°
2026-05-05 18:15 40.96235 9.63667 3455 ft 214 kts 57°
2026-05-05 18:15 40.97125 9.65387 3566 ft 238 kts 54°
2026-05-05 18:15 40.98364 9.66984 3760 ft 260 kts 33°
2026-05-05 18:16 41.00029 9.68045 4082 ft 272 kts 14°
2026-05-05 18:16 41.01915 9.68240 4526 ft 278 kts 347°
2026-05-05 18:16 41.03665 9.67223 5076 ft 275 kts 317°
2026-05-05 18:16 41.04903 9.65336 5692 ft 272 kts 302°
2026-05-05 18:17 41.06041 9.63310 6292 ft 276 kts 306°
2026-05-05 18:17 41.07317 9.61404 6939 ft 278 kts 311°
2026-05-05 18:17 41.08649 9.59540 7544 ft 278 kts 306°
2026-05-05 18:17 41.09757 9.57446 8172 ft 276 kts 298°
2026-05-05 18:18 41.10762 9.55271 8808 ft 279 kts 298°
2026-05-05 18:18 41.11810 9.53036 9353 ft 284 kts 299°
2026-05-05 18:18 41.12886 9.50820 9972 ft 287 kts 300°
2026-05-05 18:18 41.14027 9.48543 10216 ft 304 kts 301°
2026-05-05 18:19 41.15246 9.46181 10402 ft 321 kts 302°
2026-05-05 18:19 41.16565 9.43704 10568 ft 336 kts 302°
2026-05-05 18:19 41.17938 9.41173 10840 ft 347 kts 302°
2026-05-05 18:19 41.19392 9.38525 11316 ft 352 kts 303°
2026-05-05 18:20 41.20826 9.35928 11884 ft 353 kts 303°
2026-05-05 18:20 41.21809 9.34151 12291 ft 354 kts 303°
2026-05-05 18:20 41.23680 9.30608 13020 ft 355 kts 300°
2026-05-05 18:20 41.25054 9.27808 13520 ft 358 kts 299°
2026-05-05 18:21 41.26395 9.25008 14020 ft 360 kts 298°
2026-05-05 18:21 41.27719 9.22230 14498 ft 362 kts 298°
2026-05-05 18:21 41.29071 9.19393 14950 ft 364 kts 298°
2026-05-05 18:21 41.30436 9.16541 15390 ft 367 kts 298°
2026-05-05 18:22 41.31879 9.13718 15856 ft 373 kts 307°
2026-05-05 18:22 41.33943 9.11489 16312 ft 386 kts 329°
2026-05-05 18:22 41.36520 9.10372 16769 ft 397 kts 349°
2026-05-05 18:22 41.39309 9.10300 17185 ft 405 kts
2026-05-05 18:23 41.42141 9.10556 17604 ft 410 kts
2026-05-05 18:23 41.44958 9.10835 18009 ft 413 kts
2026-05-05 18:23 41.47832 9.11093 18477 ft 414 kts
2026-05-05 18:23 41.50716 9.11306 18889 ft 416 kts 359°
2026-05-05 18:24 41.53615 9.11462 19309 ft 418 kts 358°
2026-05-05 18:24 41.56521 9.11559 19756 ft 418 kts 356°
2026-05-05 18:24 41.59435 9.11547 20211 ft 419 kts 355°
2026-05-05 18:24 41.62360 9.11477 20595 ft 422 kts 355°
2026-05-05 18:25 41.65303 9.11400 20989 ft 425 kts 355°
2026-05-05 18:25 41.66301 9.11377 21122 ft 426 kts 355°
2026-05-05 18:25 41.71250 9.11282 21842 ft 429 kts 355°
2026-05-05 18:25 41.73272 9.11253 22124 ft 431 kts 355°
2026-05-05 18:26 41.74860 9.11233 22337 ft 432 kts 355°
2026-05-05 18:26 41.77018 9.11211 22613 ft 434 kts 355°
2026-05-05 18:26 41.80044 9.11181 22994 ft 436 kts 355°
2026-05-05 18:27 41.83088 9.11153 23396 ft 438 kts 355°
2026-05-05 18:27 41.86145 9.11124 23692 ft 442 kts 355°
2026-05-05 18:27 41.89232 9.11095 23943 ft 445 kts 355°
2026-05-05 18:27 41.92338 9.11069 24274 ft 446 kts 355°
2026-05-05 18:28 41.98571 9.11037 24908 ft 450 kts 355°
2026-05-05 18:28 42.01712 9.11015 25179 ft 454 kts 354°
2026-05-05 18:28 42.04874 9.10988 25503 ft 455 kts 355°
2026-05-05 18:29 42.08052 9.10956 25800 ft 457 kts 354°
2026-05-05 18:29 42.11240 9.10927 26112 ft 460 kts 354°
2026-05-05 18:29 42.14449 9.10901 26363 ft 462 kts 354°
2026-05-05 18:29 42.17671 9.10876 26641 ft 464 kts 354°
2026-05-05 18:30 42.20906 9.10857 26862 ft 467 kts 354°
2026-05-05 18:30 42.24154 9.10827 27159 ft 468 kts 354°
2026-05-05 18:30 42.27417 9.10797 27490 ft 470 kts 354°
2026-05-05 18:30 42.30697 9.10766 27678 ft 472 kts 353°
2026-05-05 18:31 42.33991 9.10729 27886 ft 474 kts 354°
2026-05-05 18:31 42.37334 9.10720 28223 ft 474 kts 354°
2026-05-05 18:31 42.40631 9.10717 28630 ft 473 kts 353°
2026-05-05 18:31 42.43910 9.10699 29075 ft 470 kts 353°
2026-05-05 18:32 42.47133 9.10680 29395 ft 469 kts 353°
2026-05-05 18:32 42.50442 9.10641 29699 ft 469 kts 353°
2026-05-05 18:32 42.53657 9.10597 30050 ft 468 kts 353°
2026-05-05 18:32 42.56910 9.10564 30323 ft 468 kts 352°
2026-05-05 18:33 42.60171 9.10537 30544 ft 469 kts 352°
2026-05-05 18:33 42.63434 9.10512 30859 ft 469 kts 352°
2026-05-05 18:33 42.66690 9.10488 31216 ft 467 kts 352°
2026-05-05 18:33 42.69946 9.10464 31454 ft 469 kts 352°
2026-05-05 18:34 42.73216 9.10483 31656 ft 473 kts 355°
2026-05-05 18:34 42.76514 9.10750 31815 ft 477 kts 358°
2026-05-05 18:34 42.83124 9.11627 31920 ft 475 kts 359°
2026-05-05 18:35 42.89664 9.12508 31953 ft 471 kts 358°
2026-05-05 18:35 42.96209 9.13284 31954 ft 472 kts 357°
2026-05-05 18:36 43.02761 9.14026 31955 ft 473 kts 357°
2026-05-05 18:36 43.09318 9.14780 31962 ft 473 kts 357°
2026-05-05 18:37 43.15880 9.15549 31956 ft 474 kts 357°
2026-05-05 18:37 43.22452 9.16323 31955 ft 474 kts 357°
2026-05-05 18:38 43.29028 9.17100 31966 ft 474 kts 357°
2026-05-05 18:38 43.32286 9.17208 31959 ft 461 kts 344°
2026-05-05 18:38 43.35324 9.16184 31967 ft 442 kts 328°
2026-05-05 18:39 43.40778 9.12470 31952 ft 437 kts 322°
2026-05-05 18:39 43.46124 9.08478 31966 ft 437 kts 322°
2026-05-05 18:40 43.51506 9.04539 31955 ft 440 kts 322°
2026-05-05 18:40 43.56956 9.00656 31949 ft 441 kts 323°
2026-05-05 18:41 43.62447 8.96836 31947 ft 447 kts 329°
2026-05-05 18:41 43.65517 8.95733 31955 ft 468 kts 347°
2026-05-05 18:41 43.68810 8.95613 31969 ft 477 kts 354°
2026-05-05 18:42 43.75465 8.96046 31947 ft 479 kts 355°
2026-05-05 18:42 43.82117 8.96467 31946 ft 478 kts 354°
2026-05-05 18:43 43.88760 8.96725 31964 ft 477 kts 353°
2026-05-05 18:43 43.95407 8.96903 31949 ft 478 kts 353°
2026-05-05 18:44 44.02058 8.97088 31943 ft 478 kts 353°
2026-05-05 18:44 44.08711 8.97296 31963 ft 479 kts 353°
2026-05-05 18:45 44.15378 8.97515 31952 ft 480 kts 353°
2026-05-05 18:45 44.22057 8.97734 31951 ft 480 kts 353°
2026-05-05 18:46 44.28735 8.97950 31961 ft 481 kts 353°
2026-05-05 18:46 44.35426 8.98167 31967 ft 481 kts 353°
2026-05-05 18:47 44.42154 8.98386 31970 ft 480 kts 353°
2026-05-05 18:47 44.48830 8.98605 31963 ft 479 kts 353°
2026-05-05 18:48 44.55484 8.98824 31963 ft 478 kts 353°
2026-05-05 18:48 44.62144 8.99042 31958 ft 479 kts 353°
2026-05-05 18:49 44.68814 8.99250 31959 ft 480 kts 353°
2026-05-05 18:49 44.75481 8.99488 31957 ft 478 kts 353°
2026-05-05 18:50 44.82125 8.99714 31953 ft 477 kts 353°
2026-05-05 18:50 44.88659 8.99927 31961 ft 478 kts 353°
2026-05-05 18:51 44.95316 9.00140 31949 ft 479 kts 353°
2026-05-05 18:51 45.01980 9.00366 31948 ft 479 kts 353°
2026-05-05 18:52 45.08661 9.00590 31962 ft 480 kts 353°
2026-05-05 18:52 45.15321 9.00818 31961 ft 478 kts 353°
2026-05-05 18:53 45.21968 9.01045 31960 ft 477 kts 353°
2026-05-05 18:53 45.28602 9.01265 31961 ft 477 kts 353°
2026-05-05 18:54 45.35291 9.01492 31959 ft 478 kts 353°
2026-05-05 18:54 45.41940 9.01719 31991 ft 478 kts 353°
2026-05-05 18:55 45.48594 9.01935 31970 ft 478 kts 354°
2026-05-05 18:55 45.55235 9.02171 31964 ft 476 kts 354°
2026-05-05 18:56 45.61876 9.02405 31973 ft 476 kts 354°
2026-05-05 18:56 45.68544 9.02622 31985 ft 476 kts 354°
2026-05-05 18:57 45.75143 9.02854 31984 ft 476 kts 354°
2026-05-05 18:57 45.81762 9.03087 31995 ft 476 kts 355°
2026-05-05 18:58 45.88397 9.03311 31992 ft 476 kts 355°
2026-05-05 18:58 45.95002 9.03545 31994 ft 473 kts 355°
2026-05-05 18:59 46.01588 9.03779 32012 ft 474 kts 355°
2026-05-05 18:59 46.08195 9.04003 31984 ft 476 kts 355°
2026-05-05 19:00 46.14820 9.04231 31995 ft 477 kts 355°
2026-05-05 19:00 46.21429 9.04177 31999 ft 475 kts 352°
2026-05-05 19:01 46.26954 9.03860 31999 ft 473 kts 351°
2026-05-05 19:01 46.33521 9.03498 31986 ft 471 kts 352°
2026-05-05 19:02 46.40059 9.03213 31986 ft 470 kts 352°
2026-05-05 19:02 46.46621 9.02921 31952 ft 473 kts 352°
2026-05-05 19:03 46.53218 9.02648 31959 ft 474 kts 352°
2026-05-05 19:03 46.59797 9.02383 31970 ft 472 kts 352°
2026-05-05 19:04 46.66365 9.02094 31945 ft 472 kts 352°
2026-05-05 19:04 46.72920 9.01785 31935 ft 472 kts 352°
2026-05-05 19:05 46.79485 9.01507 31920 ft 472 kts 352°
2026-05-05 19:05 46.86048 9.01219 31931 ft 471 kts 353°
2026-05-05 19:06 46.92616 9.00924 31916 ft 469 kts 353°
2026-05-05 19:06 46.99117 9.00649 31894 ft 464 kts 353°
2026-05-05 19:07 47.05582 9.00351 31897 ft 466 kts 354°
2026-05-05 19:07 47.12051 9.00063 31890 ft 464 kts 354°
2026-05-05 19:08 47.18481 8.99792 31891 ft 462 kts 354°
2026-05-05 19:08 47.24908 8.99510 31894 ft 463 kts 354°
2026-05-05 19:09 47.31355 8.99206 31888 ft 462 kts 355°
2026-05-05 19:09 47.37858 8.98922 31885 ft 460 kts 355°
2026-05-05 19:10 47.44213 8.98646 31887 ft 461 kts 355°
2026-05-05 19:10 47.50630 8.98348 31891 ft 462 kts 355°
2026-05-05 19:11 47.57073 8.98058 31882 ft 463 kts 355°
2026-05-05 19:11 47.63501 8.97772 31885 ft 462 kts 355°
2026-05-05 19:12 47.69923 8.97478 31884 ft 461 kts 355°
2026-05-05 19:12 47.76380 8.97186 31883 ft 461 kts 355°
2026-05-05 19:13 47.82777 8.96896 31876 ft 460 kts 355°
2026-05-05 19:13 47.89191 8.96604 31874 ft 460 kts 355°
2026-05-05 19:14 47.95590 8.96310 31874 ft 460 kts 355°
2026-05-05 19:14 48.01990 8.96018 31870 ft 460 kts 355°
2026-05-05 19:15 48.08395 8.95717 31876 ft 460 kts 356°
2026-05-05 19:15 48.14772 8.95407 31863 ft 457 kts 356°
2026-05-05 19:16 48.21107 8.95775 31862 ft 456 kts
2026-05-05 19:16 48.27421 8.96885 31857 ft 458 kts
2026-05-05 19:17 48.33755 8.97961 31851 ft 458 kts
2026-05-05 19:17 48.40104 8.98944 31844 ft 459 kts
2026-05-05 19:18 48.46486 8.99899 31845 ft 457 kts
2026-05-05 19:18 48.52809 9.00858 31834 ft 456 kts
2026-05-05 19:19 48.59125 9.01812 31832 ft 457 kts
2026-05-05 19:19 48.65490 9.02896 31831 ft 458 kts
2026-05-05 19:20 48.68621 9.03625 31505 ft 466 kts
2026-05-05 19:20 48.71858 9.04441 30888 ft 474 kts
2026-05-05 19:20 48.75147 9.05277 30156 ft 472 kts
2026-05-05 19:20 48.78380 9.06087 29304 ft 470 kts
2026-05-05 19:21 48.81597 9.06880 28439 ft 467 kts
2026-05-05 19:21 48.84798 9.07654 27601 ft 465 kts
2026-05-05 19:21 48.87985 9.08413 26778 ft 460 kts
2026-05-05 19:21 48.91116 9.09020 26029 ft 449 kts
2026-05-05 19:22 48.94192 9.09458 25300 ft 439 kts
2026-05-05 19:22 48.97229 9.09833 24573 ft 437 kts
2026-05-05 19:22 49.00247 9.10201 23860 ft 435 kts
2026-05-05 19:22 49.03262 9.10589 23059 ft 433 kts
2026-05-05 19:23 49.06263 9.10992 22236 ft 421 kts
2026-05-05 19:23 49.09144 9.11394 21499 ft 410 kts
2026-05-05 19:23 49.11951 9.11795 20800 ft 399 kts
2026-05-05 19:23 49.14657 9.12186 20161 ft 396 kts
2026-05-05 19:24 49.17387 9.12581 19500 ft 388 kts
2026-05-05 19:24 49.20079 9.12968 18838 ft 380 kts
2026-05-05 19:24 49.22678 9.13341 18194 ft 374 kts
2026-05-05 19:24 49.25249 9.13712 17493 ft 368 kts
2026-05-05 19:25 49.27775 9.14080 16827 ft 361 kts
2026-05-05 19:25 49.30239 9.14658 16189 ft 357 kts 10°
2026-05-05 19:25 49.32690 9.15496 15601 ft 370 kts 12°
2026-05-05 19:25 49.35219 9.16444 14963 ft 376 kts 12°
2026-05-05 19:26 49.37760 9.17415 14303 ft 376 kts 12°
2026-05-05 19:26 49.40281 9.18368 13619 ft 369 kts 12°
2026-05-05 19:26 49.42749 9.19286 12860 ft 361 kts 12°
2026-05-05 19:26 49.45171 9.20168 12168 ft 354 kts 11°
2026-05-05 19:27 49.47542 9.21017 11524 ft 347 kts 11°
2026-05-05 19:27 49.49883 9.21848 10903 ft 343 kts 11°
2026-05-05 19:27 49.52230 9.22676 10351 ft 339 kts 11°
2026-05-05 19:27 49.54494 9.23480 10081 ft 329 kts 11°
2026-05-05 19:28 49.56677 9.24260 9949 ft 314 kts 11°
2026-05-05 19:28 49.58741 9.24999 9884 ft 297 kts 11°
2026-05-05 19:28 49.60058 9.25468 9875 ft 290 kts 11°
2026-05-05 19:28 49.62045 9.26171 9854 ft 290 kts 11°
2026-05-05 19:29 49.63987 9.26856 9837 ft 291 kts 10°
2026-05-05 19:29 49.66010 9.27543 9833 ft 292 kts
2026-05-05 19:29 49.68011 9.27453 9686 ft 291 kts 347°
2026-05-05 19:29 49.70000 9.26852 9317 ft 289 kts 345°
2026-05-05 19:30 49.71935 9.26216 8941 ft 280 kts 344°
2026-05-05 19:30 49.73821 9.25586 8574 ft 275 kts 344°
2026-05-05 19:30 49.75678 9.24943 8222 ft 272 kts 343°
2026-05-05 19:30 49.77524 9.24289 8010 ft 271 kts 343°
2026-05-05 19:31 49.79339 9.23643 7903 ft 267 kts 343°
2026-05-05 19:31 49.81155 9.22997 7867 ft 267 kts 343°
2026-05-05 19:31 49.82960 9.22352 7857 ft 265 kts 344°
2026-05-05 19:31 49.84769 9.21698 7837 ft 264 kts 343°
2026-05-05 19:32 49.86554 9.21046 7831 ft 263 kts 343°
2026-05-05 19:32 49.88337 9.20399 7822 ft 263 kts 343°
2026-05-05 19:32 49.90123 9.19754 7817 ft 263 kts 343°
2026-05-05 19:32 49.91906 9.19108 7820 ft 263 kts 343°
2026-05-05 19:33 49.93639 9.18477 7824 ft 264 kts 343°
2026-05-05 19:33 49.95423 9.17830 7824 ft 263 kts 343°
2026-05-05 19:33 49.97210 9.17183 7818 ft 263 kts 343°
2026-05-05 19:33 49.99007 9.16531 7817 ft 263 kts 343°
2026-05-05 19:34 50.00778 9.15890 7818 ft 263 kts 343°
2026-05-05 19:34 50.02565 9.15246 7816 ft 264 kts 343°
2026-05-05 19:34 50.04377 9.14588 7731 ft 266 kts 343°
2026-05-05 19:35 50.07988 9.13252 7067 ft 266 kts 343°
2026-05-05 19:35 50.09773 9.12579 6691 ft 262 kts 343°
2026-05-05 19:35 50.11542 9.11913 6344 ft 253 kts 343°
2026-05-05 19:35 50.13204 9.11297 6159 ft 239 kts 343°
2026-05-05 19:36 50.14727 9.10467 6073 ft 228 kts 320°
2026-05-05 19:36 50.15696 9.08602 5961 ft 221 kts 283°
2026-05-05 19:36 50.15623 9.06299 5834 ft 217 kts 245°
2026-05-05 19:36 50.14979 9.04171 5712 ft 217 kts 244°
2026-05-05 19:37 50.14392 9.02074 5568 ft 202 kts 246°
2026-05-05 19:37 50.13878 9.00147 5385 ft 186 kts 246°
2026-05-05 19:37 50.13388 8.98299 5223 ft 182 kts 247°
2026-05-05 19:37 50.12928 8.96469 5074 ft 181 kts 248°
2026-05-05 19:38 50.12477 8.94564 4933 ft 181 kts 249°
2026-05-05 19:38 50.12057 8.92750 4817 ft 181 kts 249°
2026-05-05 19:38 50.11619 8.90845 4681 ft 181 kts 249°
2026-05-05 19:38 50.11212 8.88998 4449 ft 185 kts 250°
2026-05-05 19:39 50.10767 8.87095 4183 ft 183 kts 249°
2026-05-05 19:39 50.10332 8.85245 3922 ft 181 kts 249°
2026-05-05 19:39 50.09898 8.83408 3665 ft 180 kts 249°
2026-05-05 19:39 50.09465 8.81585 3440 ft 179 kts 250°
2026-05-05 19:40 50.09034 8.79774 3206 ft 178 kts 250°
2026-05-05 19:40 50.08603 8.77954 2969 ft 179 kts 249°
2026-05-05 19:40 50.08172 8.76142 2741 ft 178 kts 249°
2026-05-05 19:40 50.07745 8.74353 2491 ft 174 kts 249°
2026-05-05 19:41 50.07319 8.72562 2232 ft 169 kts 249°
2026-05-05 19:41 50.06923 8.70901 2001 ft 162 kts 249°
2026-05-05 19:41 50.06556 8.69351 1865 ft 146 kts 249°
2026-05-05 19:41 50.06214 8.67913 1633 ft 138 kts 249°
2026-05-05 19:42 50.05878 8.66455 1431 ft 143 kts 251°
2026-05-05 19:42 50.05545 8.65005 1145 ft 147 kts 249°
2026-05-05 19:42 50.05148 8.63456 1047 ft 155 kts 249°
2026-05-05 19:42 50.04789 8.61906 826 ft 157 kts 250°
2026-05-05 19:43 50.04412 8.60348 626 ft 152 kts 247°
2026-05-05 19:43 50.04040 8.58809 377 ft 144 kts 248°
2026-05-05 19:43 50.03704 8.57404 349 ft 128 kts 251°
2026-05-05 19:43 50.03467 8.56355 352 ft 79 kts 248°
2026-05-05 19:44 50.03295 8.55657 348 ft 58 kts 254°
2026-05-05 19:44 50.03183 8.55140 351 ft 38 kts 263°
2026-05-05 19:44 50.03202 8.54751 346 ft 28 kts 281°
2026-05-05 19:44 50.03214 8.54661 348 ft 0 kts 281°
2026-05-05 19:45 50.03214 8.54660 348 ft 1 kts 281°
2026-05-05 19:45 50.03232 8.54618 356 ft 5 kts 325°
2026-05-05 19:46 50.03269 8.54616 349 ft 6 kts 24°
2026-05-05 19:46 50.03298 8.54672 349 ft 10 kts 67°
2026-05-05 19:46 50.03332 8.54822 350 ft 17 kts 68°
2026-05-05 19:46 50.03378 8.54996 355 ft 18 kts 68°
2026-05-05 19:47 50.03422 8.55177 352 ft 18 kts 70°
2026-05-05 19:47 50.03467 8.55360 355 ft 18 kts 70°
2026-05-05 19:47 50.03510 8.55549 353 ft 19 kts 69°
2026-05-05 19:47 50.03555 8.55736 350 ft 19 kts 69°
2026-05-05 19:48 50.03601 8.55924 352 ft 19 kts 68°
2026-05-05 19:48 50.03648 8.56114 349 ft 19 kts 70°
2026-05-05 19:48 50.03678 8.56245 353 ft 19 kts 70°
2026-05-05 19:48 50.03741 8.56503 352 ft 19 kts 69°
2026-05-05 19:49 50.03774 8.56636 348 ft 20 kts 69°
2026-05-05 19:49 50.03821 8.56836 349 ft 20 kts 70°
2026-05-05 19:49 50.03868 8.57039 353 ft 20 kts 70°
2026-05-05 19:49 50.03915 8.57240 351 ft 20 kts 69°
2026-05-05 19:50 50.03965 8.57444 351 ft 20 kts 69°
2026-05-05 19:50 50.04015 8.57651 353 ft 21 kts 69°
2026-05-05 19:50 50.04065 8.57862 348 ft 21 kts 70°
2026-05-05 19:50 50.04111 8.58053 355 ft 15 kts 69°
2026-05-05 19:51 50.04173 8.58160 355 ft 14 kts 31°
2026-05-05 19:51 50.04265 8.58211 350 ft 14 kts 359°
2026-05-05 19:51 50.04361 8.58165 350 ft 15 kts 339°
2026-05-05 19:51 50.04451 8.58113 355 ft 14 kts 340°
2026-05-05 19:52 50.04521 8.58073 352 ft 9 kts 340°
2026-05-05 19:52 50.04553 8.58056 352 ft 3 kts 340°
2026-05-05 19:52 50.04572 8.58044 351 ft 0 kts 339°
2026-05-05 19:52 50.04573 8.58044 351 ft 0 kts 339°
2026-05-05 19:53 50.04578 8.58041 351 ft 1 kts 339°
2026-05-05 19:53 50.04591 8.58033 354 ft 2 kts 339°
2026-05-05 19:53 50.04627 8.58012 348 ft 10 kts 339°
2026-05-05 19:53 50.04694 8.57972 351 ft 11 kts 339°
2026-05-05 19:54 50.04767 8.57970 349 ft 11 kts 27°
2026-05-05 19:54 50.04809 8.58066 349 ft 10 kts 71°
2026-05-05 19:54 50.04823 8.58136 349 ft 6 kts 78°
2026-05-05 19:54 50.04809 8.58187 348 ft 5 kts 141°
2026-05-05 19:55 50.04776 8.58211 347 ft 4 kts 158°
2026-05-05 19:55 50.04759 8.58222 348 ft 1 kts 160°
2026-05-05 19:55 50.04752 8.58226 350 ft 0 kts 160°